Volver al catálogo

ATLAS 5 CENTAUR DEB

ActivoHEO
NORAD 52971·DEBRIS·🇺🇸 United States

Lanzado Oct 17, 2018 desde Cape Canaveral Space Force Station

Loading…

Próximos Pases (próximas 24 horas)

TLE

EnvejeciendoSource: Space-Track

Época: Aug 24, 2026, 19:27 UTC

1 52971U 18079GV  26236.81089769 -.00000187  00000-0  00000+0 0  9992
2 52971  13.1709  31.1138 4771705 332.4625   8.6560  1.82283214 32113

Sigue ATLAS 5 CENTAUR DEB en tiempo real con AllMySat

Download on the App Store